Temperature
25 23 23 23 24 24 24 24 23 23 24 23 22 22 21 21 21 20 20 20 20 20 21 20 20 20 20 20 19 19 19 19 19 19 19 18 18 18 18 18 18 18 18 18
24 24 25 25 24 24 24 24 23 23 24 23 22 22 22 21 21 21 21 20 20 20 20 20 20 20 20 20 20 19 19 19 19 19 19 19 18 18 18 18 18 18 18 18
25 25 25 25 25 25 24 24 24 24 23 23 23 22 22 21 21 21 21 21 21 21 21 20 20 20 20 20 20 20 19 19 19 19 19 19 19 18 18 18 18 18 18 18
25 25 26 26 25 25 24 25 24 24 22 21 22 21 22 21 20 21 21 21 21 21 21 21 21 20 20 20 20 20 19 19 19 19 19 19 19 18 18 18 18 18 18 18
25 25 26 26 26 25 25 24 24 23 22 21 21 21 21 20 21 20 21 21 21 21 21 21 21 21 21 21 20 20 20 19 19 19 19 19 19 19 18 18 18 18 18 18
25 25 26 26 26 25 24 23 22 20 20 21 21 21 21 20 21 21 21 21 22 22 22 21 21 21 21 21 20 20 20 19 19 19 19 19 19 19 19 19 18 18 18 18
25 25 25 26 25 24 23 22 21 22 20 21 21 21 21 22 21 21 21 22 22 22 22 21 21 21 21 21 20 20 20 20 19 19 19 19 19 19 19 18 18 18 18 18
24 24 25 25 25 24 23 22 21 22 21 21 21 21 21 22 22 22 22 22 22 22 22 22 22 22 21 21 21 20 20 20 20 19 19 19 19 19 19 18 18 18 18 18
22 23 25 25 25 24 23 21 21 19 20 21 21 21 22 22 22 21 21 22 22 22 22 22 22 22 21 21 21 21 20 20 20 20 19 19 19 19 19 19 18 18 18 18
22 24 24 24 24 23 22 20 18 19 21 22 22 22 21 22 22 21 20 21 22 22 22 22 22 22 22 21 21 21 21 21 20 20 20 19 19 19 19 18 18 18 18 18
22 22 23 23 24 23 22 21 18 17 19 20 22 22 22 21 21 20 20 22 22 22 22 23 22 22 22 22 21 21 21 20 20 20 20 19 19 19 19 18 18 18 18 18
20 19 21 22 23 23 23 21 19 21 20 18 20 21 22 21 20 20 21 22 22 22 23 23 22 22 22 22 21 21 21 21 20 20 20 19 19 19 18 18 18 18 18 18
20 19 20 22 22 22 22 21 19 17 17 17 20 22 21 20 20 21 21 22 22 22 22 22 22 22 22 22 22 21 21 21 20 20 20 19 19 19 18 18 18 18 18 18
19 18 20 21 21 21 22 21 20 19 18 18 19 20 20 20 20 20 21 21 22 22 22 22 21 21 22 22 21 21 21 21 20 20 20 19 19 19 18 18 18 18 18 18
18 19 20 20 21 21 22 21 21 21 19 20 20 19 20 19 19 20 21 21 21 21 22 22 22 21 21 21 21 21 21 21 20 20 19 19 19 18 18 18 18 18 17 17
16 18 19 20 21 21 21 21 21 21 20 20 20 20 19 20 20 20 21 21 21 21 22 22 22 22 21 21 21 21 21 21 20 20 19 19 18 18 18 18 18 18 17 17
15 17 18 19 19 21 20 20 20 20 20 20 20 20 19 19 19 20 20 21 21 21 21 21 21 22 22 21 21 21 21 20 20 20 19 19 18 18 18 18 17 17 17 17
15 15 14 16 19 20 20 20 20 20 20 19 19 19 19 19 21 21 21 21 21 21 21 21 21 21 21 21 21 21 20 20 20 19 19 19 18 18 18 17 17 17 17 17
13 14 14 15 17 18 19 20 20 20 20 19 19 18 19 19 20 20 21 21 21 21 22 21 21 21 21 21 21 20 20 20 19 19 19 18 18 18 18 17 17 17 17 17
12 13 14 14 17 18 19 19 20 20 19 19 18 18 18 18 18 19 21 21 21 21 21 21 21 21 21 20 20 20 20 20 19 19 19 18 18 18 18 17 17 17 17 17
14 13 14 14 16 17 18 18 19 19 19 18 18 18 18 17 18 20 20 20 20 20 20 20 20 20 20 20 20 20 20 20 19 19 18 18 18 18 18 17 17 17 16 16
14 13 13 13 16 17 17 17 17 17 18 18 18 18 18 19 19 19 19 20 20 20 20 20 20 20 20 19 19 19 19 19 19 18 18 18 18 18 17 17 17 16 16 16
12 13 13 14 15 16 16 17 18 18 18 18 18 18 18 18 18 18 19 19 19 19 19 19 19 19 19 19 19 19 19 18 18 18 18 18 17 17 17 17 17 16 16 16
12 12 12 13 14 15 17 17 18 18 18 18 18 18 18 18 18 18 18 18 18 18 18 18 18 18 18 18 18 18 18 18 18 18 17 17 17 17 17 16 16 16 16 16
12 12 12 13 13 15 16 17 17 18 18 18 18 18 18 18 18 18 18 18 18 18 17 17 17 17 17 17 17 17 17 17 17 17 17 17 17 17 16 16 16 16 16 16
11 12 12 13 14 13 15 16 16 17 17 17 17 17 17 17 17 17 17 17 17 17 17 17 17 17 17 17 17 17 17 17 17 17 17 16 16 16 16 16 16 16 15 15
Wind_Speed
2 4 2 6 7 5 4 3 2 3 2 2 2 2 4 6 6 6 6 6 6 6 4 4 4 4 4 3 3 3 3 2 3 2 2 2 1 1 1 0 1 2 3 4
4 2 6 4 4 4 4 2 1 2 1 3 1 1 3 5 8 8 8 9 9 6 4 4 4 4 4 4 3 3 3 2 3 2 2 2 2 1 1 1 1 2 3 4
5 5 2 3 3 3 2 5 4 2 2 4 3 3 2 3 4 5 7 7 8 9 9 7 6 6 5 5 5 4 3 3 3 3 3 3 3 2 2 2 1 1 3 4
3 3 2 2 2 4 2 4 5 4 4 2 2 2 5 4 4 6 7 8 9 9 9 8 7 7 7 7 5 4 3 3 2 3 3 3 3 2 1 1 0 1 2 3
4 2 2 2 4 5 3 3 5 4 4 2 3 1 7 1 5 8 9 10 10 9 10 10 9 8 7 6 5 4 3 3 3 3 4 4 3 2 1 2 2 1 1 2
4 2 3 4 1 4 6 7 7 6 5 2 2 1 6 4 7 7 8 10 10 10 9 8 8 6 5 5 4 4 4 3 3 4 4 4 4 3 3 2 1 1 1 1
4 3 2 2 4 3 6 6 4 5 4 4 2 2 7 7 6 7 8 11 10 9 8 8 9 8 7 7 6 5 5 4 3 4 4 4 4 4 4 2 2 1 1 0
1 4 3 1 4 5 4 8 7 4 4 4 2 4 7 5 4 4 5 6 8 8 9 9 10 10 9 9 7 6 6 5 4 4 4 4 4 3 3 3 2 2 2 1
5 5 4 1 1 7 6 3 6 7 2 1 5 6 8 4 3 1 2 5 7 9 9 10 9 9 9 9 8 8 7 6 5 5 4 3 4 3 3 3 2 2 1 2
7 2 4 3 5 5 5 8 6 6 5 2 5 4 5 6 5 3 2 5 6 6 7 8 8 8 8 8 8 7 8 7 5 4 4 4 3 3 3 3 3 2 2 2
5 4 4 4 2 2 4 5 6 5 5 6 3 6 5 6 5 5 5 5 6 7 8 8 8 8 7 6 7 7 6 5 5 5 4 4 3 3 3 3 2 2 2 3
3 5 1 4 3 1 4 5 6 5 3 4 4 7 5 4 4 4 4 4 4 5 5 6 6 6 7 7 7 7 7 6 6 5 4 4 3 3 3 3 2 2 3 3
5 6 2 5 5 4 3 3 4 6 5 5 4 7 4 3 3 2 3 2 2 3 3 4 4 5 7 7 7 7 7 7 6 6 5 4 4 4 4 3 3 2 3 2
5 4 6 8 7 3 1 1 4 5 4 4 7 7 7 5 5 4 2 2 2 3 4 4 4 4 4 5 6 7 6 6 6 6 6 5 4 4 4 4 3 3 3 2
5 4 3 3 3 3 3 3 4 4 7 7 7 7 8 6 5 5 2 1 2 2 3 4 4 4 4 5 5 6 6 6 6 6 6 5 4 4 4 4 3 3 3 3
4 4 2 1 0 1 1 3 4 4 4 5 3 6 6 5 2 2 2 3 4 4 5 5 5 5 5 5 6 6 6 6 6 6 6 5 5 4 4 4 4 3 3 3
2 4 3 2 2 2 3 5 5 4 4 6 6 7 3 2 4 5 5 5 6 6 5 5 6 6 7 6 7 7 7 7 7 6 6 5 6 5 4 4 4 4 4 3
5 5 4 2 2 5 7 3 3 3 3 4 4 4 4 5 6 5 4 5 6 5 5 5 5 5 5 5 5 6 7 7 7 7 6 6 5 5 4 4 4 4 3 3
5 7 4 4 3 4 6 2 2 3 3 3 3 3 3 2 3 3 3 4 6 5 5 4 5 4 4 4 6 6 7 7 7 7 7 6 6 5 5 5 5 4 4 4
5 5 5 4 4 7 7 4 2 3 3 3 2 3 1 1 1 5 4 3 3 2 2 2 3 3 4 4 5 7 7 8 8 8 7 7 7 7 6 6 4 3 4 4
3 3 3 4 4 6 5 5 1 4 6 4 2 2 2 3 5 4 2 2 2 2 1 1 3 4 4 4 6 6 7 8 8 7 6 6 6 7 7 5 4 3 3 3
5 5 4 4 3 6 4 2 3 5 3 1 2 2 3 3 2 2 2 1 2 2 2 0 2 2 2 4 5 6 6 5 5 6 6 6 6 6 5 5 4 4 4 3
4 6 6 7 7 4 2 3 3 2 2 2 2 3 2 1 1 1 1 1 1 1 1 1 2 1 0 2 4 5 4 4 5 6 6 5 5 5 5 6 5 4 4 4
2 1 2 2 5 4 4 3 2 2 2 3 2 2 2 1 2 2 1 1 1 0 1 2 2 2 0 0 1 3 3 4 5 5 5 5 5 4 4 4 5 4 4 4
4 1 1 3 5 5 5 4 4 4 4 3 2 1 2 2 2 2 2 2 2 1 0 1 1 1 1 1 2 2 3 4 4 4 4 4 4 4 4 4 4 5 5 6
5 5 5 6 7 5 6 6 5 4 4 3 3 3 2 3 3 3 2 2 2 2 1 1 1 2 2 2 3 3 4 5 5 4 4 4 4 4 4 4 3 3 5 6
Wind_Direction
67 82 188 212 196 185 166 174 240 253 194 134 180 209 193 180 176 182 184 188 197 209 205 177 178 171 153 152 154 156 146 140 128 111 114 118 130 131 98 176 186 163 153 143
44 266 231 192 167 146 147 149 241 324 106 129 128 270 216 192 197 195 194 197 201 202 194 186 181 177 171 172 177 172 171 159 151 143 133 132 131 145 141 71 98 134 145 148
189 239 184 142 147 137 181 182 190 175 59 60 69 342 264 232 202 202 203 204 204 200 197 194 189 189 181 184 191 191 189 175 160 136 107 90 79 69 64 60 66 95 133 144
228 244 147 135 184 148 242 222 166 122 88 342 61 285 279 241 231 218 213 206 207 206 198 194 191 191 195 198 192 191 182 174 158 139 133 133 135 141 162 150 138 74 112 129
246 197 150 211 218 163 195 97 103 94 99 41 18 126 292 293 251 241 220 211 207 203 197 195 196 197 197 190 183 183 174 177 163 152 157 151 147 153 126 99 87 64 66 100
247 239 191 207 129 130 119 74 60 55 67 360 271 164 285 249 238 246 220 210 205 200 196 195 195 187 187 181 177 172 170 186 170 162 163 165 162 151 134 125 113 81 69 71
332 327 305 134 81 50 93 92 43 11 11 263 281 206 255 264 249 234 220 207 202 194 188 188 189 187 187 186 183 179 176 193 184 174 177 177 173 166 168 172 175 165 137 136
158 294 278 201 165 171 157 136 152 185 223 277 325 245 260 282 280 252 217 197 188 183 187 192 195 191 190 190 186 182 184 196 187 184 188 178 170 172 179 181 181 181 187 194
169 247 295 278 145 133 133 140 150 130 143 322 291 291 305 329 352 0 170 178 190 190 191 195 191 190 188 189 191 188 191 197 191 189 182 173 170 169 175 171 165 163 169 155
154 207 302 314 67 41 117 136 99 115 143 238 299 293 274 300 303 296 218 202 202 192 193 195 192 192 190 191 190 185 188 193 189 181 183 182 174 172 168 153 157 159 165 152
125 144 320 23 106 167 88 89 100 111 142 154 237 272 237 236 248 247 238 217 202 195 196 194 193 193 188 183 183 185 187 182 178 179 179 168 166 156 145 149 164 167 163 160
124 124 232 273 288 199 140 147 141 145 194 164 178 260 286 237 246 231 237 229 203 197 193 188 186 184 182 184 186 186 186 186 186 176 170 165 154 140 143 158 170 160 156 156
122 112 84 347 341 8 77 105 121 120 115 148 175 260 322 9 339 288 245 238 200 175 159 156 168 181 188 187 185 184 184 186 179 167 166 160 160 159 164 168 164 153 152 148
113 112 164 195 214 200 160 129 146 126 141 189 219 248 301 320 314 301 280 243 192 170 154 156 170 180 183 182 179 179 184 180 172 165 165 168 179 180 179 175 168 163 156 157
93 135 187 222 216 167 173 194 189 175 179 186 225 225 254 260 260 260 250 217 180 182 180 182 185 186 185 180 177 174 173 167 164 165 170 180 184 175 172 175 177 172 169 180
63 123 116 5 11 155 180 216 208 204 189 200 221 256 258 261 268 249 229 199 204 216 213 208 201 190 189 191 186 178 177 172 161 164 172 171 168 167 177 183 181 176 183 187
89 116 115 223 304 55 262 225 202 201 208 183 207 235 256 278 252 232 226 219 215 221 219 213 214 210 201 195 188 183 179 168 166 172 173 171 169 170 181 183 180 190 197 192
141 119 127 142 102 215 239 244 190 192 227 209 224 245 235 236 246 240 225 216 224 222 221 220 217 217 212 194 185 177 166 166 171 173 177 177 173 176 178 179 190 199 196 195
152 140 129 135 176 262 291 263 167 184 262 225 220 264 296 313 347 313 276 229 223 226 223 220 213 204 197 191 180 168 168 170 177 184 185 184 177 177 180 194 202 201 195 204
72 100 123 136 165 222 243 277 277 127 265 275 245 246 273 77 297 277 299 284 265 267 257 227 201 178 183 189 172 169 176 178 190 195 191 185 181 182 191 201 205 204 200 208
66 66 130 164 204 250 261 289 79 162 243 279 238 225 196 201 230 269 295 309 313 305 291 226 175 181 194 180 169 175 179 195 197 189 183 185 188 190 194 193 196 193 198 202
162 150 171 153 184 246 282 74 154 224 261 237 242 240 236 253 282 299 316 342 356 348 345 102 163 191 189 170 166 175 194 197 174 175 183 189 192 193 190 187 195 190 189 206
184 186 185 189 210 244 258 234 246 213 228 246 238 263 245 216 235 270 296 324 334 331 359 43 127 128 140 176 166 182 198 167 163 171 186 193 196 192 185 186 193 198 194 209
273 164 153 250 264 278 292 303 310 296 262 263 248 236 207 198 204 224 225 249 267 323 51 64 93 112 116 206 172 181 165 149 157 176 186 186 189 194 191 194 195 199 204 211
234 199 185 255 279 312 305 303 304 315 318 310 301 268 222 189 208 213 217 233 230 221 108 88 115 158 229 238 225 187 163 150 155 175 185 187 191 196 202 211 211 213 222 216
222 200 198 233 237 224 259 279 290 284 282 280 287 294 261 210 207 204 216 228 227 210 190 197 218 216 235 226 229 204 182 167 165 181 196 202 201 202 207 210 234 240 233 239
Height
1492 1499 1505 1502 1500 1502 1505 1510 1513 1509 1504 1507 1510 1511 1509 1509 1511 1512 1513 1515 1516 1517 1519 1520 1521 1522 1523 1524 1524 1525 1525 1525 1526 1526 1527 1527 1528 1529 1529 1530 1531 1532 1532 1533
1498 1502 1495 1494 1496 1500 1505 1511 1513 1508 1504 1507 1512 1512 1508 1508 1509 1510 1511 1512 1514 1516 1518 1519 1520 1522 1523 1524 1524 1525 1526 1526 1527 1527 1528 1528 1529 1530 1530 1531 1532 1532 1533 1534
1499 1496 1492 1494 1498 1502 1505 1509 1510 1510 1508 1508 1512 1516 1512 1509 1509 1510 1510 1511 1512 1514 1515 1518 1519 1521 1522 1523 1524 1525 1526 1526 1527 1528 1529 1529 1530 1530 1531 1532 1532 1533 1534 1534
1495 1491 1492 1495 1497 1499 1508 1500 1502 1507 1516 1524 1519 1532 1515 1510 1509 1508 1508 1509 1510 1512 1513 1515 1518 1519 1521 1522 1524 1525 1526 1527 1528 1528 1529 1529 1530 1531 1531 1532 1533 1533 1534 1535
1495 1490 1492 1496 1494 1494 1500 1497 1503 1508 1517 1526 1524 1531 1522 1511 1511 1506 1504 1505 1506 1509 1511 1513 1515 1518 1520 1522 1523 1525 1526 1527 1528 1528 1529 1530 1530 1531 1532 1533 1533 1534 1534 1535
1490 1488 1489 1490 1489 1491 1496 1503 1510 1518 1526 1538 1528 1532 1527 1514 1507 1501 1499 1501 1503 1505 1508 1511 1514 1517 1519 1521 1523 1524 1525 1526 1527 1528 1529 1530 1530 1531 1532 1533 1533 1534 1535 1535
1496 1490 1488 1488 1493 1495 1499 1516 1536 1539 1546 1542 1527 1529 1523 1502 1497 1496 1495 1496 1499 1503 1506 1509 1512 1515 1517 1519 1521 1523 1524 1525 1526 1527 1528 1529 1530 1531 1532 1532 1533 1534 1534 1535
1507 1508 1491 1488 1491 1498 1502 1511 1535 1546 1548 1541 1528 1529 1512 1497 1493 1492 1492 1494 1497 1500 1503 1506 1509 1512 1515 1517 1519 1521 1522 1524 1525 1526 1527 1529 1530 1531 1531 1532 1533 1534 1534 1534
1507 1506 1489 1486 1487 1492 1503 1511 1513 1531 1537 1541 1534 1521 1505 1494 1492 1492 1492 1493 1495 1498 1501 1504 1507 1510 1512 1515 1517 1519 1521 1522 1524 1525 1526 1528 1529 1530 1531 1532 1533 1533 1534 1534
1495 1503 1493 1488 1488 1492 1496 1507 1521 1532 1544 1545 1534 1526 1519 1502 1497 1494 1493 1493 1494 1497 1499 1502 1505 1508 1511 1513 1515 1518 1519 1521 1523 1524 1526 1527 1528 1529 1530 1531 1532 1533 1533 1534
1491 1503 1501 1495 1498 1501 1503 1510 1519 1530 1532 1543 1543 1530 1501 1499 1495 1494 1492 1492 1493 1495 1497 1500 1503 1506 1509 1512 1514 1516 1518 1520 1522 1523 1525 1526 1527 1528 1529 1530 1531 1532 1533 1533
1493 1504 1511 1503 1494 1493 1496 1504 1514 1525 1532 1536 1538 1527 1493 1493 1492 1491 1491 1491 1492 1494 1496 1499 1502 1504 1507 1509 1512 1514 1516 1518 1520 1522 1524 1524 1526 1527 1528 1529 1530 1531 1532 1532
1493 1505 1518 1516 1510 1500 1500 1503 1508 1517 1529 1536 1535 1520 1492 1492 1491 1491 1491 1490 1491 1493 1495 1498 1500 1502 1505 1507 1510 1512 1514 1516 1518 1520 1522 1523 1524 1525 1527 1528 1529 1530 1531 1531
1489 1504 1512 1518 1512 1503 1503 1503 1506 1512 1525 1530 1524 1513 1498 1494 1493 1491 1491 1491 1491 1493 1494 1496 1498 1500 1503 1505 1507 1510 1512 1514 1516 1518 1520 1521 1522 1524 1525 1527 1528 1528 1529 1530
1489 1502 1501 1501 1498 1498 1499 1501 1503 1505 1510 1516 1511 1509 1499 1494 1493 1491 1491 1491 1491 1492 1493 1495 1496 1499 1501 1503 1505 1508 1510 1512 1514 1516 1517 1519 1521 1522 1523 1524 1526 1527 1527 1528
1493 1501 1501 1502 1498 1498 1500 1499 1500 1501 1503 1504 1504 1503 1492 1491 1491 1490 1490 1490 1491 1491 1492 1494 1495 1497 1498 1501 1503 1505 1507 1510 1512 1514 1516 1517 1519 1520 1521 1522 1523 1524 1525 1526
1499 1502 1509 1511 1503 1500 1508 1499 1498 1498 1496 1498 1502 1497 1490 1490 1489 1488 1488 1489 1489 1489 1491 1492 1493 1494 1496 1498 1500 1503 1505 1508 1510 1511 1513 1515 1516 1517 1518 1520 1521 1522 1523 1524
1498 1505 1513 1515 1508 1516 1503 1490 1491 1493 1492 1492 1491 1490 1489 1487 1486 1486 1486 1487 1487 1488 1489 1490 1492 1493 1494 1496 1499 1501 1503 1505 1507 1508 1510 1512 1513 1514 1516 1517 1518 1519 1521 1521
1492 1501 1513 1519 1518 1510 1498 1489 1490 1493 1494 1489 1489 1488 1488 1487 1486 1485 1485 1485 1485 1486 1487 1488 1490 1491 1492 1494 1496 1498 1500 1502 1504 1505 1507 1509 1510 1511 1513 1514 1515 1517 1518 1519
1495 1498 1510 1517 1516 1516 1499 1487 1485 1490 1496 1488 1486 1486 1487 1487 1491 1486 1484 1484 1484 1485 1485 1486 1487 1488 1490 1492 1494 1495 1497 1499 1500 1502 1504 1506 1507 1508 1510 1511 1513 1515 1516 1516
1502 1506 1510 1513 1512 1504 1490 1485 1485 1499 1496 1486 1485 1485 1485 1485 1486 1484 1483 1482 1483 1483 1484 1484 1485 1486 1487 1489 1491 1492 1494 1495 1497 1499 1501 1503 1504 1506 1507 1509 1510 1511 1512 1513
1502 1506 1510 1512 1512 1505 1487 1485 1490 1490 1485 1484 1484 1483 1483 1483 1483 1482 1481 1481 1481 1481 1481 1482 1483 1484 1485 1486 1488 1489 1491 1493 1495 1497 1498 1499 1501 1503 1504 1505 1507 1508 1509 1509
1497 1497 1498 1499 1497 1488 1485 1485 1484 1484 1483 1483 1482 1482 1481 1481 1481 1481 1480 1480 1480 1480 1480 1480 1481 1482 1484 1484 1486 1487 1489 1491 1493 1494 1495 1497 1498 1499 1501 1502 1503 1504 1505 1505
1493 1491 1493 1492 1487 1484 1483 1483 1482 1482 1482 1481 1481 1480 1480 1479 1479 1480 1480 1479 1479 1479 1479 1479 1480 1481 1482 1483 1484 1486 1487 1488 1490 1491 1493 1494 1495 1496 1497 1499 1499 1500 1500 1501
1491 1490 1490 1489 1485 1483 1481 1481 1481 1480 1480 1480 1479 1479 1479 1478 1478 1479 1478 1478 1478 1478 1478 1479 1479 1480 1481 1482 1483 1484 1485 1486 1487 1488 1489 1491 1492 1493 1494 1495 1496 1496 1497 1497
1486 1487 1488 1486 1482 1482 1480 1480 1480 1479 1478 1478 1477 1476 1477 1477 1476 1476 1476 1476 1476 1476 1477 1478 1478 1479 1479 1480 1481 1482 1483 1484 1484 1485 1486 1488 1488 1489 1491 1491 1492 1492 1493 1494